Danville, KY

3:34 AM EDT on September 25, 2017 (GMT -0400)
Powell

Weather History for KDVK - September, 2014

Change the Weather History Date:

Thursday, September 18, 2014

  Actual Average (KLEX) Record (KLEX)
Temperature  
Mean Temperature 62 °F -  
Max Temperature 71 °F 77 °F 96 °F (1953)
Min Temperature 53 °F 58 °F 39 °F (1937)
Degree Days  
Heating Degree Days 3    
Growing Degree Days 12 (Base 50)    
Moisture  
Dew Point 52 °F    
Average Humidity 74    
Maximum Humidity 100    
Minimum Humidity 43    
Precipitation  
Precipitation 0.00 in - - ()
Sea Level Pressure  
Sea Level Pressure 30.06 in    
Wind  
Wind Speed 3 mph (ENE)    
Max Wind Speed 9 mph    
Max Gust Speed -    
Visibility 10 miles    
Events      
Averages and records for this station are not official NWS values.
T = Trace of Precipitation, MM = Missing Value Source: NWS Daily Summary

Daily Weather History Graph

Daily Weather History Graph

Search for Another Location

Airport or City:

Trip Planner

Search our weather history database for the weather conditions in past years. The results will help you decide how hot, cold, wet, or windy it might be!

Date:

Astronomy

Sep. 18, 2014 Rise Set
Actual Time 7:23 AM EDT 7:42 PM EDT
Civil Twilight 6:57 AM EDT 8:08 PM EDT
Nautical Twilight 6:26 AM EDT 8:39 PM EDT
Astronomical Twilight 5:55 AM EDT 9:10 PM EDT
Moon 2:19 AM EDT (9/18) 4:28 PM EDT (9/18)
Length of Visible Light 13h 11m
Length of Day
12h 18m
Waning Crescent, 26% of the Moon is Illuminated
Sep 18
Waning Crescent
Sep 24
New
Oct 1
First Quarter
Oct 8
Full
Oct 15
Last Quarter

Hourly Weather History & Observations

Time (EDT) Temp. Dew Point Humidity Pressure Visibility Wind Dir Wind Speed Gust Speed Precip Events Conditions
12:15 AM 55.4 °F 53.6 °F 94% 30.02 in 10.0 mi Calm Calm - N/A   Clear
12:35 AM 53.6 °F 51.8 °F 94% 30.02 in 10.0 mi Calm Calm - N/A   Scattered Clouds
12:55 AM 55.4 °F 53.6 °F 94% 30.02 in 10.0 mi Calm Calm - N/A   Mostly Cloudy
1:15 AM 55.4 °F 51.8 °F 88% 30.02 in 10.0 mi North 3.5 mph - N/A   Overcast
1:35 AM 53.6 °F 51.8 °F 94% 30.02 in 10.0 mi NNW 4.6 mph - N/A   Overcast
1:55 AM 53.6 °F 51.8 °F 94% 30.03 in 10.0 mi North 3.5 mph - N/A   Mostly Cloudy
2:15 AM 55.4 °F 51.8 °F 88% 30.03 in 10.0 mi Calm Calm - N/A   Mostly Cloudy
2:35 AM 53.6 °F 51.8 °F 94% 30.03 in 10.0 mi Calm Calm - N/A   Overcast
2:55 AM 53.6 °F 53.6 °F 100% 30.03 in 10.0 mi North 3.5 mph - N/A   Overcast
3:15 AM 55.4 °F 53.6 °F 94% 30.02 in 10.0 mi Calm Calm - N/A   Overcast
4:15 AM 55.4 °F 53.6 °F 94% 30.02 in 10.0 mi Calm Calm - N/A   Overcast
4:35 AM 55.4 °F 53.6 °F 94% 30.02 in 10.0 mi Calm Calm - N/A   Overcast
5:15 AM 55.4 °F 51.8 °F 88% 30.02 in 10.0 mi Calm Calm - N/A   Overcast
5:35 AM 53.6 °F 51.8 °F 94% 30.03 in 10.0 mi Calm Calm - N/A   Mostly Cloudy
5:55 AM 53.6 °F 51.8 °F 94% 30.03 in 10.0 mi Calm Calm - N/A   Overcast
6:15 AM 53.6 °F 51.8 °F 94% 30.03 in 10.0 mi Calm Calm - N/A   Overcast
6:35 AM 53.6 °F 51.8 °F 94% 30.03 in 10.0 mi ENE 3.5 mph - N/A   Overcast
6:55 AM 55.4 °F 51.8 °F 88% 30.03 in 10.0 mi Calm Calm - N/A   Overcast
7:15 AM 55.4 °F 51.8 °F 88% 30.04 in 10.0 mi Calm Calm - N/A   Overcast
7:35 AM 55.4 °F 51.8 °F 88% 30.04 in 10.0 mi Calm Calm - N/A   Overcast
7:55 AM 55.4 °F 51.8 °F 88% 30.05 in 10.0 mi Calm Calm - N/A   Overcast
8:15 AM 55.4 °F 51.8 °F 88% 30.05 in 10.0 mi Calm Calm - N/A   Overcast
8:35 AM 55.4 °F 51.8 °F 88% 30.05 in 10.0 mi Calm Calm - N/A   Mostly Cloudy
8:55 AM 57.2 °F 53.6 °F 88% 30.06 in 10.0 mi NNE 5.8 mph - N/A   Mostly Cloudy
9:15 AM 59.0 °F 53.6 °F 82% 30.05 in 10.0 mi ENE 6.9 mph - N/A   Overcast
9:35 AM 60.8 °F 53.6 °F 77% 30.06 in 10.0 mi NE 6.9 mph - N/A   Mostly Cloudy
9:55 AM 62.6 °F 53.6 °F 72% 30.07 in 10.0 mi ENE 5.8 mph - N/A   Mostly Cloudy
10:15 AM 62.6 °F 53.6 °F 72% 30.07 in 10.0 mi East 5.8 mph - N/A   Overcast
10:35 AM 62.6 °F 51.8 °F 68% 30.08 in 10.0 mi ENE 5.8 mph - N/A   Overcast
10:55 AM 62.6 °F 53.6 °F 72% 30.09 in 10.0 mi ENE 3.5 mph - N/A   Overcast
11:15 AM 62.6 °F 53.6 °F 72% 30.09 in 10.0 mi ENE 5.8 mph - N/A   Overcast
11:35 AM 66.2 °F 53.6 °F 64% 30.09 in 10.0 mi East 5.8 mph - N/A   Scattered Clouds
11:55 AM 68.0 °F 53.6 °F 60% 30.09 in 10.0 mi East 4.6 mph - N/A   Clear
12:15 PM 68.0 °F 53.6 °F 60% 30.09 in 10.0 mi ESE 5.8 mph - N/A   Scattered Clouds
12:35 PM 68.0 °F 53.6 °F 60% 30.09 in 10.0 mi NE 4.6 mph - N/A   Scattered Clouds
12:55 PM 69.8 °F 53.6 °F 56% 30.08 in 10.0 mi ENE 6.9 mph - N/A   Mostly Cloudy
1:15 PM 69.8 °F 53.6 °F 56% 30.07 in 10.0 mi ESE 5.8 mph - N/A   Scattered Clouds
1:35 PM 69.8 °F 53.6 °F 56% 30.06 in 10.0 mi East 6.9 mph - N/A   Scattered Clouds
1:55 PM 71.6 °F 53.6 °F 53% 30.07 in 10.0 mi East 9.2 mph - N/A   Clear
2:15 PM 71.6 °F 53.6 °F 53% 30.07 in 10.0 mi NE 8.1 mph - N/A   Clear
2:35 PM 71.6 °F 51.8 °F 50% 30.07 in 10.0 mi East 6.9 mph - N/A   Clear
2:55 PM 71.6 °F 51.8 °F 50% 30.06 in 10.0 mi ENE 6.9 mph - N/A   Clear
3:35 PM 71.6 °F 51.8 °F 50% 30.05 in 10.0 mi East 6.9 mph - N/A   Scattered Clouds
3:55 PM 71.6 °F 51.8 °F 50% 30.05 in 10.0 mi ENE 8.1 mph - N/A   Scattered Clouds
4:15 PM 71.6 °F 51.8 °F 50% 30.05 in 10.0 mi NE 8.1 mph - N/A   Clear
4:35 PM 71.6 °F 51.8 °F 50% 30.05 in 10.0 mi ENE 5.8 mph - N/A   Clear
4:55 PM 71.6 °F 51.8 °F 50% 30.04 in 10.0 mi NE 5.8 mph - N/A   Clear
5:15 PM 71.6 °F 48.2 °F 43% 30.04 in 10.0 mi NE 3.5 mph - N/A   Clear
5:35 PM 71.6 °F 50.0 °F 46% 30.04 in 10.0 mi NE 8.1 mph - N/A   Clear
5:55 PM 71.6 °F 50.0 °F 46% 30.05 in 10.0 mi ENE 4.6 mph - N/A   Clear
6:15 PM 69.8 °F 51.8 °F 53% 30.05 in 10.0 mi NE 6.9 mph - N/A   Clear
6:35 PM 69.8 °F 51.8 °F 53% 30.05 in 10.0 mi ENE 6.9 mph - N/A   Clear
6:55 PM 68.0 °F 51.8 °F 56% 30.05 in 10.0 mi ENE 5.8 mph - N/A   Clear
7:15 PM 68.0 °F 51.8 °F 56% 30.05 in 10.0 mi ENE 3.5 mph - N/A   Clear
7:35 PM 64.4 °F 51.8 °F 64% 30.05 in 10.0 mi ENE 3.5 mph - N/A   Clear
7:55 PM 62.6 °F 51.8 °F 68% 30.06 in 10.0 mi ENE 3.5 mph - N/A   Clear
8:15 PM 60.8 °F 51.8 °F 72% 30.06 in 10.0 mi ENE 3.5 mph - N/A   Clear
8:35 PM 59.0 °F 51.8 °F 77% 30.06 in 10.0 mi Calm Calm - N/A   Clear
8:55 PM 59.0 °F 51.8 °F 77% 30.07 in 10.0 mi ENE 3.5 mph - N/A   Clear
9:15 PM 57.2 °F 51.8 °F 82% 30.08 in 10.0 mi Calm Calm - N/A   Clear
9:35 PM 57.2 °F 51.8 °F 82% 30.09 in 10.0 mi Calm Calm - N/A   Clear
9:55 PM 55.4 °F 51.8 °F 88% 30.09 in 10.0 mi Calm Calm - N/A   Clear
10:15 PM 57.2 °F 51.8 °F 82% 30.10 in 10.0 mi East 3.5 mph - N/A   Clear
10:35 PM 57.2 °F 51.8 °F 82% 30.10 in 10.0 mi Calm Calm - N/A   Clear
10:55 PM 57.2 °F 51.8 °F 82% 30.10 in 10.0 mi ENE 3.5 mph - N/A   Clear
11:15 PM 55.4 °F 51.8 °F 88% 30.10 in 10.0 mi Calm Calm - N/A   Clear
11:35 PM 53.6 °F 51.8 °F 94% 30.11 in 10.0 mi Calm Calm - N/A   Clear
11:55 PM 55.4 °F 51.8 °F 88% 30.11 in 10.0 mi Calm Calm - N/A   Clear